Regional Weather Roundup
Issued by NWS

Home | Current Version | Previous Version | Text Only | Print | Product List | Glossary On
Versions: 1 2 3 4 5 6 7 8 9 10 11 12 13 14 15 16 17 18 19 20 21 22 23 24 25 26 27 28 29 30 31 32 33 34 35 36 37 38 39 40 41 42 43 44 45 46 47 48 49 50
476
ASUS44 KLIX 242305
RWRLA
LOUISIANA WEATHER ROUNDUP
NATIONAL WEATHER SERVICE NEW ORLEANS LA
600 PM CDT THU JUL 24 2014

NOTE: "FAIR" INDICATES FEW OR NO CLOUDS BELOW 12,000 FEET WITH NO
      SIGNIFICANT WEATHER AND/OR OBSTRUCTIONS TO VISIBILITY.
      SKY/WX - SKY CONDITION AND SIGNIFICANT WEATHER.
      TMP - AIR TEMPERATURE.    DP   - DEWPOINT TEMPERATURE.
      RH  - RELATIVE HUMIDITY.  PRES - PRESSURE.
      HX  - HEAT INDEX.         WCI  - WIND CHILL INDEX.

*  THESE STATIONS ARE NOT NWS OR FAA STATIONS AND ARE NOT UNDER
   NWS QUALITY CONTROL.

LAZ040-048-061>063-065-066-069-250000-
SOUTHEAST LOUISIANA

CITY           SKY/WX    TMP DP  RH WIND       PRES   REMARKS
N.O. AUDUBON     N/A     87  73  61 MISG        N/A
N.O. INTL ARPT MOSUNNY   88  73  61 SE5       29.93F HX  95
N.O. LAKEFRONT MOSUNNY   85  72  65 SW3       29.93F
N.O. DOWNTOWN* FAIR      86  72  62 CALM      29.93F
SLIDELL        MOSUNNY   86  74  67 CALM      29.92F
BATON ROUGE    MOSUNNY   85  74  69 N5        29.94F
BOOTHVILLE     MOSUNNY   84  75  74 SW9       29.95F
BELLE CHASSE   PTSUNNY   86  73  65 CALM      29.93F
BOGALUSA*      FAIR      91  67  45 CALM      29.93F
GALLIANO*      NOT AVBL
NEW ROADS*     FAIR      88  74  62 N6        29.94S HX  96
GONZALES*      FAIR      89  74  63 W3        29.92F HX  98
HAMMOND*       SUNNY     93  66  40 CALM      29.94F HX  96
HOUMA*         MOSUNNY   84  70  61 E8        29.93F
PORT FOURCHON* CLEAR     86  77  74 W12       29.96S HX  97

$$

LAZ041-044-053-054-250000-
SOUTHWEST LOUISIANA

CITY           SKY/WX    TMP DP  RH WIND       PRES   REMARKS
LAKE CHARLES   PTSUNNY   92  72  51 N12       29.93F HX  99
LAFAYETTE      PTSUNNY   84  74  71 W9        29.94F
PATTERSON      SUNNY     88  75  66 W8        29.98F HX  97
SALT POINT       N/A     88  77  69 VRB5      29.94S HX 100
NEW IBERIA     SUNNY     84  73  69 W9        29.95F
CHENAULT AIRPK MOSUNNY   90  72  55 N7        29.94F HX  96

$$

LAZ027-028-250000-
CENTRAL LOUISIANA

CITY           SKY/WX    TMP DP  RH WIND       PRES   REMARKS
FORT POLK      MOSUNNY   88  71  57 NE6       29.96F
ALEXANDRIA INT SUNNY     89  71  55 NW5       29.94F HX  95
ALEXANDRIA     SUNNY     92  71  50 VRB5      29.95F HX  98

$$

LAZ001-002-250000-
NORTHWEST LOUISIANA

CITY           SKY/WX    TMP DP  RH WIND       PRES   REMARKS
SHREVEPORT     MOSUNNY   86  71  60 VRB5      29.98F
BARKSDALE AFB  MOSUNNY   87  71  59 N3        29.98F
DTN SHREVEPORT SUNNY     86  70  58 VRB3      29.98F

$$

LAZ014-016-250000-
NORTHEAST LOUISIANA

CITY           SKY/WX    TMP DP  RH WIND       PRES   REMARKS
MONROE         MOSUNNY   91  72  53 NE8       29.96F HX  98
TALLULAH       SUNNY     88  74  63 N7        29.94F HX  96

$$




USA.gov is the U.S. government's official web portal to all federal, state and local government web resources and services.